Погода в Токме

Погода в Токме : погода сейчас, прогноз погоды и архив. Всё, что Вы хотите узнать о погоде в Токме!

Хотите узнать прогноз погоды в Токме? Тогда Вам сюда: Погода в Токме

Поиск расширенной информации на нашем сайте:

Другие новости

Новости СМИ2

Главная страница сайта

Новости сайта

02.10.2013

Напоминаем, что на нашем новом сайте вы можете получить высокодетализированные прогнозы погоды по пунктам России, СНГ и мира (включающие важные для авиации метеовеличины, такие как направление и скорость ветра, видимость, явления погоды, количество и форма облачности, нижняя и верхняя граница облачности), а также ознакомиться с разнообразными материалами по авиационной метеорологии и подборкой полезных ссылок на эту тему.

Сайт Метеоцентр.Азия посвящён разработке технологий оптимизации авиаметеорологического обслуживания, включая проектирование и перспективное создание нескольких автоматизированных авиаметеорологических систем:
- система выпуска высокодетальных прогностических карт явлений погоды для нижнего воздушного пространства по России и ближнему зарубежью;
- система верификации прогнозов TAF (выпускаемых синоптиками официальных АМСГ РФ и ближнего зарубежья) и AUTOTAF (выпускаемых сайтом Метеоцентр.Азия) - выявление ошибок, онлайн-сопоставление с фактической погодой METAR, автоматическое внесение коррективов в прогнозы при резком отклонении фактической погоды от прогноза, подсчёт оправдываемости прогнозов по элементам и в целом;
- система обработки, анализа и отображения авиаметеорологической информации для применения провайдерами метеорологической информации.

Рекомендуем: Форум просмотр темы куплю Ситроен www.zarulem.by.

Погода в Токме - сегодня

Время (UTC), дата Ветер
(°,м/с) 
Видим.   Явления Облачность Т
(°С)
Тd
(°С)
f(%) Тe
(°С)
Pmin
(гПа)
dP
(гПа)
Po
(мм)
O2
(г/м3)
Тmin Tmax R s Состояние
почвы
12 26.06.17 320 (СЗ) 20000 м    8/3 600 м средняя, верхняя 
[Cu med, cong|Ac lent|Ci fib]
+22.7 +12.6 53 +29  1003.2  1.4  716  264    +26.2       
15 26.06.17 тихо ()   н/о    4/0 средняя 
[Ac cast]
+15 +12.8 87 +21  1005.6  1.2  716  271           
18 26.06.17 тихо ()   н/о    8/0 средняя 
[Ac trans]
+11.4 +11 97 +15  1007.3  0.9  717  275           
21 26.06.17 тихо ()   20000 м  местами туман поземный  10/0 верхняя 
[Cs]
+10.4 +10.2 99 +13  1008.3  0.8  718  277           
00 27.06.17 тихо ()   20000 м    10/10 600 м 
[Sc]
+14.6 +3 46 +15  1008.4  0.7  718  274  +9.2         
03 27.06.17 тихо ()   20000 м    10/0 средняя 
[Ac As]
+19.9 +13.6 67 +27  1007.7  0.4  719  267           
06 27.06.17 270 (З) 20000 м    8/3 600 м средняя 
[Cu med, cong|Ac As]
+24.7 +9.6 38 +26  1006.5  -0.5  718  264           
09 27.06.17 270 (З) 20000 м    8/3 600 м средняя, верхняя 
[Cu med, cong|Ac trans|Ci fib]
+26.9 +8.9 32 +28  1005.5  -0.6  718  262           
12 27.06.17 тихо ()   20000 м    6/1 600 м средняя, верхняя 
[Sc|Ac trans|Ci fib]
+25.2 +10.6 40 +28  1006  0.3  718  263    +27.2       
15 27.06.17 тихо ()   н/о    4/0 средняя 
[Ac As]
+14.9 +10.3 74 +17  1008.8  0.8  719  273           
18 27.06.17 тихо ()   н/о    4/0 средняя, верхняя 
[Ac trans|Ci fib]
+10.7 +9.9 95 +13  1010.2  0.6  719  277           
21 27.06.17 тихо ()   20000 м    10/0 средняя 
[Ac As]
+11.4 +10.6 95 +14  1010.5  0.5  719  276           
00 28.06.17 тихо ()   20000 м    8/0 средняя 
[Ac lent]
+17.5 +13.3 76 +24  1009.6  0.3  720  270  +9.7         
03 28.06.17 320 (СЗ) 20000 м    9/0 средняя 
[Ac trans]
+24.3 +10.7 42 +27  1008.3  -0.1  719  264           
06 28.06.17 020 (С) 20000 м    4/3 600 м верхняя 
[Cu med, cong|Ci fib]
+27.1 +10.4 35 +30  1006.6  -1.2  719  262           
09 28.06.17 290 (З) 10 км  дым  8/5 600 м кучево-дожд., средняя, верхняя 
[Cb calv|Ac cast|Ci fib]
+28.1 +12.6 38 +34  1005.9  -0.6  718  260           
12 28.06.17 110 (В) 20000 м    8/8 600 м кучево-дожд. 
[Cb cap]
+22.9 +14.5 59 +32  1008  1.3  719  264    +28.4       
15 28.06.17 тихо ()   н/о    5/0 средняя, верхняя 
[Ac trans|Ci fib]
+16.7 +14.3 86 +25  1010  0.6  720  270           
18 28.06.17 тихо ()   н/о    3/0 средняя 
[Ac trans]
+12.7 +12.3 97 +18  1011  0.4  720  275           
21 28.06.17 тихо ()   20000 м    3/0 верхняя 
[Ci fib]
+10.7 +9.9 95 +13  1011.8  0.4  720  277           
00 29.06.17 тихо ()   20000 м    ясно 
+18.7 +14.9 79 +28  1011  0.8  721  269  +10.2         
03 29.06.17 340 (С) 20000 м    4/4 600 м 
[Cu med, cong]
+25.7 +14.5 50 +35  1009.8  721  262           
06 29.06.17 060 (СВ) 20000 м    6/6 600 м 
[Cu med, cong]
+28.6 +11.9 36 +33  1008.1  -1.4  720  260           
09 29.06.17 230 (ЮЗ) 20000 м    9/6 600 м кучево-дожд., верхняя 
[Cb cap|Ci fib]
+28.4 +13.9 41 +36  1007.3  -0.7  719  260           
12 29.06.17 тихо ()   20000 м  {гроза, ливн. осадки}  9/4 600 м кучево-дожд., верхняя 
[Cb cap|Ci fib]
+25.6 +15.8 55 +37  1007.7  719  262    +29.3  0.2     
Время (UTC), дата Ветер
(°,м/с) 
Видим.   Явления Облачность Т
(°С)
Тd
(°С)
f(%) Тe
(°С)
Pmin
(гПа)
dP
(гПа)
Po
(мм)
O2
(г/м3)
Тmin Tmax R s Состояние
почвы

Для получения пояснительной информации подведите курсор к названию столбца.

ПОГОДА в Токме - архив

Всё, что Вы хотите узнать о погоде в Токме - удобно и подробно!

Выберите нужную дату (начиная с 1 января 2015* года) и нажмите кнопку "Найти".
Будут отображены архивные сводки погоды по пункту Токма, начиная с указанной даты.


Отображать данные в формате CSV (для использования в таблицах Excel)


Внимание! Наш архив погоды предназначен исключительно для личного некоммерческого использования в познавательных целях. Если Вам необходимы официальные справки о состоянии погоды (для производственных, юридических, коммерческих и т.п. целей), обращайтесь в органы Росгидромета.

*Примечание: данная дата относится к архиву по метеостанциям СССР (Россия, СНГ, Балтия).
Архив по метеостанциям Зарубежной Европы и Азии (кроме Китая) хранится 10 дней, по другим регионам земного шара (Китай, Африка, Америка, Австралия, Океания) - 1 день.

Токма - район местоположения метеостанции


Название, широта, долгота, высота метеостанции:
Токма 58.3°ш. 105.9°д. 435 м над ур. моря [Российская Федерация]

Дополнительная информация

В oтличие oт бoльшинства пoгoдных сайтoв мы публикуем пoдрoбную метеoинфoрмацию в детальнoм прoфессиoнальнoм фoрмате.

Характеристики температуры и влажнoсти вoздуха измеряются на высoте 2 м в тени вдали oт зданий и деревьев.
Скoрoсть ветра измеряется на высoте 10 м (на урoвне рoста челoвека скoрoсть ветра ниже в 1.5-2 раза). Если метеoстанция нахoдится в гoрoде или в лесу, тo скoрoсть ветра занижена на 2-4 м/с пo сравнению с oткрытым местoм. Скoрoсть ветра над акватoриями крупных рек и oзёр, а также на вершинах хoлмoв на 2-5 м/с выше, чем в oбычных услoвиях.
Атмoсфернoе давление в разных тoчках местнoсти мoжет значительнo oтличаться oт давления на метеoстанции, в зависимoсти oт услoвий рельефа (при пoдъёме на 10 м давление пoнижается примернo на 1 мм рт.ст.).